DateTimeUTC,F1_A11,F1_S11,BsB_S11,BsG_S11,BsR_S11,BbsB_S11,BbsG_S11,BbsR_S11,BaB_A11,BaG_A11,BaR_A11,Tu_S11,T_S11,Uu_S11,U_S11,P_S11,T1_A11
2021-01-23T12:00:00Z,00000200,21000000,,,,,,,0000.64,0000.97,0000.25,15.8,23.0,,00.0,0651.7,30.9
2021-01-23T12:01:00Z,00000200,21000000,,,,,,,0000.75,0000.79,0000.83,15.9,23.0,,00.0,0651.7,30.9
2021-01-23T12:02:00Z,00000200,21000000,,,,,,,0000.43,0000.07,0000.24,15.9,23.0,,00.0,0651.7,30.9
2021-01-23T12:03:00Z,00000200,61000000,,,,,,,0001.16,0001.21,0000.37,15.9,23.0,,00.0,0651.7,30.9
2021-01-23T12:04:00Z,00000200,41000000,0000.10,0000.02,-000.10,0000.16,-000.23,0000.11,0000.95,0000.58,0000.65,16.2,22.9,,00.0,0652.5,30.9
2021-01-23T12:05:00Z,00000200,01000000,0000.17,0000.08,0000.42,0000.34,0000.03,0000.05,0000.88,0000.89,0000.93,16.2,22.9,,00.0,0652.6,30.9
2021-01-23T12:06:00Z,00000200,01000000,0000.03,0000.17,0000.49,-000.47,0000.05,0000.16,0000.74,0000.81,0000.63,16.2,22.9,,00.0,0652.6,30.9
2021-01-23T12:07:00Z,00000200,01000000,0000.78,-000.12,0000.32,0000.31,0000.05,0000.06,0001.60,0001.34,0000.91,16.1,22.8,,00.0,0652.6,30.9
2021-01-23T12:08:00Z,00000200,01000000,0001.15,0001.12,0001.10,-000.17,0000.32,0000.46,0012.30,0011.43,0009.71,16.1,22.8,,00.0,0652.6,30.9
2021-01-23T12:09:00Z,00000200,01000000,0001.24,0000.67,0000.51,-000.02,0000.32,-000.06,0008.57,0008.45,0006.66,16.1,22.8,,00.0,0652.7,30.9
2021-01-23T12:10:00Z,00000200,01000000,0002.04,0000.60,0000.47,0000.17,0000.00,0000.29,0005.82,0005.41,0004.29,16.0,22.7,,00.0,0652.7,30.9
2021-01-23T12:11:00Z,00000200,01000000,0003.01,0001.97,0001.33,0001.39,0000.31,0000.06,0026.13,0024.48,0020.59,16.0,22.7,,00.0,0652.7,30.9
2021-01-23T12:12:00Z,00000200,01000000,0005.03,0003.45,0002.21,0001.11,0000.63,0000.59,0042.70,0039.38,0032.26,16.0,22.7,,00.0,0652.7,30.9
2021-01-23T12:13:00Z,00000200,01000000,0002.54,0002.29,0001.56,0000.21,0000.48,0000.55,0030.19,0028.60,0023.66,16.1,22.7,,00.0,0652.7,30.9
2021-01-23T12:14:00Z,00000200,01000000,0001.68,0001.15,0000.74,0000.28,0000.33,0000.34,0012.92,0012.30,0010.06,16.1,22.8,,00.0,0652.7,30.9
2021-01-23T12:15:00Z,00000200,01000000,0000.12,0000.15,0000.35,0000.28,-000.24,0000.15,0002.50,0002.37,0001.80,16.2,22.8,,00.0,0652.7,30.9
2021-01-23T12:16:00Z,00000200,01000000,0000.49,0000.27,0000.15,0000.18,0000.16,0000.24,0000.88,0000.89,0000.87,16.3,22.8,,00.0,0652.7,30.9
2021-01-23T12:17:00Z,00000200,01000000,0000.28,0000.31,0000.29,0000.31,0000.24,0000.01,0001.30,0000.42,0000.42,16.3,22.8,,00.0,0652.7,30.9
2021-01-23T12:18:00Z,00000200,01000000,0000.56,0000.23,0000.34,0000.40,-000.04,-000.30,0000.57,0001.02,0000.81,16.3,22.8,,00.0,0652.7,30.9
2021-01-23T12:19:00Z,00000200,01000000,0000.41,0000.08,-000.01,0000.39,-000.17,-000.08,0000.59,0000.47,0000.56,16.3,22.8,,00.0,0652.8,30.9
2021-01-23T12:20:00Z,00000200,01000000,0000.54,0000.22,0000.29,0000.05,-000.00,-000.13,0000.70,0001.35,0000.72,16.2,22.8,,00.0,0652.8,30.9
2021-01-23T12:21:00Z,00000200,01000000,0000.37,0000.06,0000.14,0000.11,0000.15,-000.16,0001.02,0000.52,0000.27,16.2,22.8,,00.0,0652.8,30.9
2021-01-23T12:22:00Z,00000200,01000000,0000.86,0000.18,0000.01,0000.08,0000.12,-000.08,0000.73,0000.61,0000.68,16.2,22.8,,00.0,0652.8,30.9
2021-01-23T12:23:00Z,00000200,01000000,0000.56,0000.38,0000.45,-000.17,-000.12,0000.17,0000.33,0000.53,0000.16,16.1,22.8,,00.0,0652.8,30.9
2021-01-23T12:24:00Z,00000200,01000000,0000.65,0000.23,0000.18,0000.18,-000.13,0000.33,0000.64,0000.72,0000.77,16.1,22.7,,00.0,0652.7,30.9
2021-01-23T12:25:00Z,00000200,01000000,0000.67,0000.37,0000.10,-000.04,0000.26,0000.20,0000.92,0000.26,0000.65,16.0,22.7,,00.0,0652.7,30.9
2021-01-23T12:26:00Z,00000200,01000000,0000.80,0000.07,0000.14,-000.41,0000.21,0000.07,0000.48,0000.71,0000.38,16.0,22.7,,00.0,0652.7,30.9
2021-01-23T12:27:00Z,00000200,01000000,0000.62,0000.51,0000.46,-000.10,-000.02,0000.51,0000.74,0000.55,0000.07,16.1,22.7,,00.0,0652.7,30.9
2021-01-23T12:28:00Z,00000200,01000000,0001.54,0000.28,0000.31,0000.06,0000.08,0000.19,0000.78,0000.65,0000.75,16.1,22.7,,00.0,0652.7,30.9
2021-01-23T12:29:00Z,00000200,01000000,0000.69,0000.03,0000.47,-000.29,0000.10,0000.27,0000.42,0000.68,0000.83,16.2,22.7,,00.0,0652.7,30.9
2021-01-23T12:30:00Z,00000200,01000000,0000.38,-000.13,0000.55,-000.49,0000.05,0000.32,0000.54,0000.11,0000.17,16.2,22.8,,00.0,0652.7,30.9
2021-01-23T12:31:00Z,00000200,01000000,0000.19,0000.27,0000.50,0000.43,0000.13,0000.24,0000.32,0000.66,0000.32,16.3,22.8,,00.0,0652.7,30.9
2021-01-23T12:32:00Z,00000200,01000000,0000.12,0000.09,0000.13,-000.03,0000.22,0000.10,0000.96,0000.63,0000.24,16.3,22.8,,00.0,0652.7,30.9
2021-01-23T12:33:00Z,00000200,01000000,-000.18,0000.10,-000.02,-000.18,-000.05,-000.14,0000.10,0000.45,0000.34,16.3,22.8,,00.0,0652.7,30.9
2021-01-23T12:34:00Z,00000200,01000000,0001.19,0000.07,0000.12,-000.26,0000.26,0000.18,0000.17,0000.39,0000.37,16.3,22.8,,00.0,0652.8,30.9
2021-01-23T12:35:00Z,00000200,01000000,0000.37,0000.88,0000.71,-000.01,0000.19,0000.42,0006.96,0006.09,0004.84,16.2,22.8,,00.0,0652.8,30.9
2021-01-23T12:36:00Z,00000200,01000000,0006.52,0004.70,0003.07,0001.24,0001.12,0000.80,0065.24,0059.99,0048.65,16.2,22.8,,00.0,0652.9,30.9
2021-01-23T12:37:00Z,00000200,01000000,0011.95,0008.37,0005.51,0002.37,0002.00,0001.74,0130.19,0121.60,0099.62,16.2,22.8,,00.0,0652.9,30.9
2021-01-23T12:38:00Z,00000200,01000000,0004.98,0003.15,0002.27,0001.21,0000.78,0000.53,0050.76,0048.11,0040.33,16.1,22.8,,00.0,0652.9,30.9
2021-01-23T12:39:00Z,00000200,01000000,0000.82,0000.28,0000.81,-000.21,0000.12,0000.32,0008.42,0007.83,0006.11,16.1,22.7,,00.0,0652.9,30.9
2021-01-23T12:40:00Z,00000200,01000000,0000.51,0000.35,0000.17,0000.25,0000.10,0000.33,0001.91,0001.65,0001.52,16.1,22.7,,00.0,0652.8,30.9
2021-01-23T12:41:00Z,00000200,01000000,0001.31,0000.11,0000.52,0000.04,-000.40,0000.04,0001.01,0001.27,0000.63,16.1,22.7,,00.0,0652.8,30.9
2021-01-23T12:42:00Z,00000200,01000000,0000.85,0000.44,0000.11,-000.06,-000.12,-000.05,0001.10,0000.75,0001.02,16.1,22.7,,00.0,0652.8,30.9
2021-01-23T12:43:00Z,00000200,01000000,0000.75,0000.44,0000.20,0000.40,0000.02,0000.06,0000.92,0000.90,0000.27,16.1,22.7,,00.0,0652.9,30.9
2021-01-23T12:44:00Z,00000200,01000000,0000.57,0000.19,0000.35,0000.18,-000.04,0000.05,0000.73,0000.95,0000.82,16.2,22.7,,00.0,0652.9,30.9
2021-01-23T12:45:00Z,00000200,01000000,0000.87,0000.20,0000.21,0000.50,0000.01,0000.18,0000.60,0000.48,0000.73,16.2,22.8,,00.0,0652.9,30.9
2021-01-23T12:46:00Z,00000200,01000000,0000.88,0000.26,0000.39,0000.13,-000.08,0000.08,0000.89,0000.67,0000.31,16.3,22.8,,00.0,0652.9,30.9
2021-01-23T12:47:00Z,00000200,01000000,0000.85,-000.04,0000.16,-000.49,0000.06,-000.15,0001.01,0000.74,0000.57,16.4,22.8,,00.0,0652.9,30.9
2021-01-23T12:48:00Z,00000200,01000000,0000.07,0000.48,0000.26,-000.10,-000.17,0000.09,0000.11,0000.38,0000.25,16.4,22.8,,00.0,0652.8,30.9
2021-01-23T12:49:00Z,00000200,01000000,0000.61,0000.07,0000.18,0000.14,0000.09,0000.24,0000.56,0000.53,0000.23,16.3,22.8,,00.0,0652.8,30.9
2021-01-23T12:50:00Z,00000200,01000000,0000.38,0000.41,0000.49,-000.04,-000.09,0000.08,0000.21,0000.55,0000.36,16.3,22.8,,00.0,0652.8,30.9
2021-01-23T12:51:00Z,00000200,01000000,0000.58,0000.36,0000.22,-000.16,0000.15,0000.09,0000.43,0000.27,0000.42,16.2,22.8,,00.0,0652.8,30.9
2021-01-23T12:52:00Z,00000200,01000000,0000.97,0000.08,0000.34,0000.12,0000.24,0000.44,0000.82,0000.52,0000.44,16.2,22.8,,00.0,0652.9,30.9
2021-01-23T12:53:00Z,00000200,01000000,0000.63,-000.09,0000.21,0000.30,-000.19,0000.14,-000.02,0000.59,0000.52,16.2,22.8,,00.0,0652.9,30.9
2021-01-23T12:54:00Z,00000200,01000000,0000.14,0000.16,0000.25,0000.40,0000.05,0000.16,0000.69,0000.26,0000.17,16.1,22.7,,00.0,0653.0,30.9
2021-01-23T12:55:00Z,00000200,01000000,0000.18,0000.12,0000.34,-000.02,-000.06,0000.14,0000.51,0000.14,0000.19,16.1,22.7,,00.0,0653.0,30.9
2021-01-23T12:56:00Z,00000200,01000000,0000.65,0000.17,0000.37,-000.19,0000.16,0000.03,0000.07,0000.41,0000.35,16.1,22.7,,00.0,0652.9,30.9
2021-01-23T12:57:00Z,00000200,41000000,,,,,,,0001.23,0000.54,0000.20,16.1,22.7,,00.0,0652.8,30.9
2021-01-23T12:58:00Z,00000200,61000000,,,,,,,-000.08,0000.42,-000.10,15.8,22.9,,00.0,0651.9,30.9
2021-01-23T12:59:00Z,00000200,21000000,,,,,,,0000.17,-000.04,0000.64,15.8,23.0,,00.0,0652.0,30.9
